![]() |
EMODnet Physics ERDDAP
Easier access to scientific data |
log in|
Brought to you by EMODnet Physics |
| Dataset Title: | NDBC - Collection of dew point temperature (DEWT) TimeSeries - IN SITU MultiPointTimeSeriesObservation
|
| Institution: | NDBC (Dataset ID: TS_DEWT_NDBC) |
| Information: | Summary
| License
| FGDC
| ISO 19115
| Metadata
| Background
| Subset
| Data Access Form
| Make a graph
|
| Name | Last modified | Size | Description | |
|---|---|---|---|---|
| Parent Directory | - | - | ||
| 46035_TS_DEWT_012003.nc | 18-Jan-2026 05:14 | 429558 | ||
| 46035_TS_DEWT_012004.nc | 18-Jan-2026 05:17 | 429558 | ||
| 46035_TS_DEWT_012005.nc | 18-Jan-2026 05:20 | 419613 | ||
| 46035_TS_DEWT_012006.nc | 18-Jan-2026 05:23 | 450200 | ||
| 46035_TS_DEWT_012007.nc | 18-Jan-2026 05:27 | 449035 | ||
| 46035_TS_DEWT_022003.nc | 18-Jan-2026 05:14 | 449082 | ||
| 46035_TS_DEWT_022004.nc | 18-Jan-2026 05:17 | 448760 | ||
| 46035_TS_DEWT_022005.nc | 18-Jan-2026 05:20 | 449095 | ||
| 46035_TS_DEWT_022006.nc | 18-Jan-2026 05:23 | 450335 | ||
| 46035_TS_DEWT_032003.nc | 18-Jan-2026 05:14 | 448928 | ||
| 46035_TS_DEWT_032004.nc | 18-Jan-2026 05:17 | 448564 | ||
| 46035_TS_DEWT_032005.nc | 18-Jan-2026 05:21 | 449005 | ||
| 46035_TS_DEWT_032006.nc | 18-Jan-2026 05:24 | 449456 | ||
| 46035_TS_DEWT_042003.nc | 18-Jan-2026 05:15 | 426715 | ||
| 46035_TS_DEWT_042004.nc | 18-Jan-2026 05:18 | 429678 | ||
| 46035_TS_DEWT_042005.nc | 18-Jan-2026 05:21 | 429684 | ||
| 46035_TS_DEWT_042006.nc | 18-Jan-2026 05:24 | 429685 | ||
| 46035_TS_DEWT_052003.nc | 18-Jan-2026 05:15 | 426374 | ||
| 46035_TS_DEWT_052004.nc | 18-Jan-2026 05:18 | 429687 | ||
| 46035_TS_DEWT_052005.nc | 18-Jan-2026 05:21 | 429665 | ||
| 46035_TS_DEWT_052006.nc | 18-Jan-2026 05:24 | 429658 | ||
| 46035_TS_DEWT_062003.nc | 18-Jan-2026 05:15 | 429687 | ||
| 46035_TS_DEWT_062004.nc | 18-Jan-2026 05:18 | 429680 | ||
| 46035_TS_DEWT_062005.nc | 18-Jan-2026 05:21 | 429679 | ||
| 46035_TS_DEWT_062006.nc | 18-Jan-2026 05:25 | 444180 | ||
| 46035_TS_DEWT_062024.nc | 18-Jan-2026 06:39 | 451301 | ||
| 46035_TS_DEWT_072002.nc | 18-Jan-2026 05:12 | 451336 | ||
| 46035_TS_DEWT_072003.nc | 18-Jan-2026 05:15 | 450101 | ||
| 46035_TS_DEWT_072004.nc | 18-Jan-2026 05:18 | 443516 | ||
| 46035_TS_DEWT_072005.nc | 18-Jan-2026 05:21 | 449250 | ||
| 46035_TS_DEWT_072006.nc | 18-Jan-2026 05:25 | 449674 | ||
| 46035_TS_DEWT_072024.nc | 18-Jan-2026 06:40 | 448668 | ||
| 46035_TS_DEWT_082002.nc | 18-Jan-2026 05:13 | 450165 | ||
| 46035_TS_DEWT_082003.nc | 18-Jan-2026 05:16 | 450651 | ||
| 46035_TS_DEWT_082004.nc | 18-Jan-2026 05:19 | 451645 | ||
| 46035_TS_DEWT_082005.nc | 18-Jan-2026 05:22 | 449903 | ||
| 46035_TS_DEWT_082006.nc | 18-Jan-2026 05:25 | 429900 | ||
| 46035_TS_DEWT_082024.nc | 18-Jan-2026 06:41 | 429907 | ||
| 46035_TS_DEWT_092002.nc | 18-Jan-2026 05:13 | 450061 | ||
| 46035_TS_DEWT_092003.nc | 18-Jan-2026 05:16 | 450096 | ||
| 46035_TS_DEWT_092004.nc | 18-Jan-2026 05:19 | 450842 | ||
| 46035_TS_DEWT_092005.nc | 18-Jan-2026 05:22 | 450319 | ||
| 46035_TS_DEWT_092006.nc | 18-Jan-2026 05:26 | 449980 | ||
| 46035_TS_DEWT_092024.nc | 18-Jan-2026 06:42 | 449839 | ||
| 46035_TS_DEWT_102001.nc | 01-Jan-2025 22:30 | 449743 | ||
| 46035_TS_DEWT_102002.nc | 18-Jan-2026 05:13 | 449944 | ||
| 46035_TS_DEWT_102003.nc | 18-Jan-2026 05:16 | 451120 | ||
| 46035_TS_DEWT_102004.nc | 18-Jan-2026 05:19 | 449784 | ||
| 46035_TS_DEWT_102005.nc | 18-Jan-2026 05:22 | 424910 | ||
| 46035_TS_DEWT_102006.nc | 18-Jan-2026 05:26 | 429688 | ||
| 46035_TS_DEWT_112001.nc | 01-Jan-2025 22:30 | 429680 | ||
| 46035_TS_DEWT_112002.nc | 18-Jan-2026 05:13 | 429684 | ||
| 46035_TS_DEWT_112003.nc | 18-Jan-2026 05:16 | 429685 | ||
| 46035_TS_DEWT_112004.nc | 18-Jan-2026 05:19 | 425112 | ||
| 46035_TS_DEWT_112005.nc | 18-Jan-2026 05:22 | 425074 | ||
| 46035_TS_DEWT_112006.nc | 18-Jan-2026 05:26 | 429689 | ||
| 46035_TS_DEWT_122002.nc | 18-Jan-2026 05:14 | 429328 | ||
| 46035_TS_DEWT_122003.nc | 18-Jan-2026 05:17 | 429679 | ||
| 46035_TS_DEWT_122004.nc | 18-Jan-2026 05:20 | 429358 | ||
| 46035_TS_DEWT_122005.nc | 18-Jan-2026 05:23 | 429682 | ||
| 46035_TS_DEWT_122006.nc | 18-Jan-2026 05:27 | 450728 | ||